Search your local weather  

 
Advertise Here

Hazardous Weather Conditions

No active alerts for PHILADELPHIA, PENNSYLVANIA

Current Conditions: PHILADELPHIA, PENNSYLVANIA

Overcast


30.0 F

Last Updated on Mar 6 2021, 11:55 pm EST
Humidity: 53%
Wind Speed: N 0.0 mph
Barometer 30.23 in
Dewpoint: 15.1 F
Visibility: 10.00 mi
Precip: --
Heat Index: NA
Wind Chill: NA
Current conditions at:

Philadelphia - Wings Field Airport, PA (KLOM)

Lat: 40.13758 Lon: -75.2684

Local Radar Image active severe weather and emergency alerts image image weather storm and storm spotter reports image weather observation monitoring service image
Local
Radar
Active
Alerts
Storm Reports Weather
Monitoring

Sign-up For Email & Text Message Weather Alert Notification Services


Advertise Here

Observation History for PHILADELPHIA, PENNSYLVANIA


Time Wind
(mph)
Vis
(mi)
Weather Precip (in) Temperature (F) Relative
Humidity
Wind
Chill
(F)
Heat
Index
(F)
Pressure
Air Dwpt altimeter
(in)
sea level
(mb)
11:55 pm EST N 0.0 10.00 Overcast -- 30.0 15.1 53% NA NA 30.23 M
10:55 pm EST N 0.0 10.00 Overcast -- 30.0 18.9 62% NA NA 30.22 M
9:55 pm EST N 0.0 10.00 Overcast -- 32.0 17.4 55% NA NA 30.21 M
8:55 pm EST N 0.0 10.00 Overcast -- 33.0 18.5 56% NA NA 30.20 M
7:55 pm EST N 0.0 10.00 Overcast -- 34.0 17.1 50% NA NA 30.18 M
6:55 pm EST NW 4.6 10.00 Overcast -- 34.0 16.9 49% 30 NA 30.17 M
5:55 pm EST NW 4.6 10.00 Overcast -- 34.0 17.1 50% 30 NA 30.15 M
4:55 pm EST NW 8.1 10.00 Overcast -- 34.0 18.1 52% 27 NA 30.13 M
3:55 pm EST W 8.1 10.00 Overcast -- 35.0 18.3 51% 28 NA 30.11 M
3:35 pm EST NW 10.4 G 19.6 10.00 Overcast -- 35.0 18.9 52% 27 NA 30.10 M
2:55 pm EST W 9.2 G 18.4 10.00 Overcast -- 35.0 19.6 54% 28 NA 30.10 M
1:55 pm EST NW 5.8 G 17.3 10.00 Overcast -- 35.0 19.4 54% 30 NA 30.09 M
12:55 pm EST NW 9.2 G 18.4 10.00 Overcast -- 36.0 18.9 49% 29 NA 30.09 M
11:55 am EST NW 9.2 10.00 Overcast -- 34.0 19.9 56% 27 NA 30.10 M
10:55 am EST W 9.2 10.00 Overcast -- 34.0 21.2 60% 27 NA 30.10 M
9:55 am EST NW 6.9 10.00 Light Snow -- 31.0 21.0 66% 24 NA 30.11 M
8:55 am EST N 10.4 10.00 Overcast -- 32.0 19.4 59% 24 NA 30.09 M
7:55 am EST W 5.8 10.00 Overcast -- 32.0 18.3 58% 26 NA 30.07 M
6:55 am EST W 3.5 10.00 Fair -- 29.0 18.1 63% NA NA 30.04 M
5:55 am EST W 3.5 10.00 Mostly Cloudy -- 29.0 17.6 62% NA NA 30.04 M
4:55 am EST W 4.6 10.00 Mostly Cloudy -- 31.0 17.8 58% 26 NA 30.02 M
3:55 am EST W 6.9 10.00 Overcast -- 32.0 17.1 54% 26 NA 30.01 M
2:55 am EST W 8.1 10.00 Overcast -- 32.0 16.2 52% 25 NA 30.00 M
1:55 am EST W 5.8 10.00 Overcast -- 31.0 15.4 51% 25 NA 30.00 M

Regional Weather Observation

Philadelphia, Northeast Philadelphia Airport, PA (KPNE)

Overcast
32.0 F

Pottstown, Pottstown Limerick Airport, PA (KPTW)

Overcast
31.0 F

Doylestown, Doylestown Airport, PA (KDYL)

Overcast
30.0 F

Pennridge Airport, PA (KCKZ)

Overcast
28.0 F

Quakertown Airport, PA (KUKT)

Overcast
28.0 F

Brandywine Regional Airport, PA (KOQN)

Overcast
34.0 F
Advertise Here

Advertise Here